Regional Weather Roundup
Issued by NWS

Home | Current Version | Previous Version | Text Only | Print | Product List | Glossary Off
Versions: 1 2 3 4 5 6 7 8 9 10 11 12 13 14 15 16 17 18 19 20 21 22 23 24 25 26 27 28 29 30 31 32 33 34 35 36 37 38 39 40 41 42 43 44 45 46 47 48 49 50

791
ASUS43 KMKX 120710
RWRWI

WISCONSIN REGIONAL WEATHER ROUNDUP
NATIONAL WEATHER SERVICE MILWAUKEE/SULLIVAN WI
100 AM CST FRI FEB 12 2016

NOTE: "FAIR" INDICATES FEW OR NO CLOUDS BELOW 12,000 FEET WITH NO
SIGNIFICANT WEATHER AND/OR OBSTRUCTIONS TO VISIBILITY.

WIZ001-002-006>008-014>016-023>028-120800-
NORTHWEST WISCONSIN

CITY           SKY/WX    TMP DP  RH WIND       PRES   REMARKS
SUPERIOR ARPT  PTCLDY    11   1  62 NW13      30.17S WCI  -4
ASHLAND        CLOUDY    13   1  59 W9        30.12S WCI   1
HAYWARD        CLOUDY    12   2  64 W3        30.11F
SIREN          CLOUDY    14   8  78 NW8       30.16F WCI   3
CUMBERLAND     CLOUDY    12   7  79 W10       30.13F WCI  -1
RICE LAKE      CLOUDY    13   7  78 W6        30.16F WCI   4
CHETEK         CLOUDY    13   7  76 W7        30.15F WCI   3
LADYSMITH      CLOUDY    13   4  69 W10       30.13F WCI   0
EAU CLAIRE     CLOUDY    14   5  67 W9        30.17F WCI   2
MENOMONIE      CLOUDY    15   7  69 W8        30.18F WCI   4
NEW RICHMOND   CLOUDY    13   8  80 W8        30.17F WCI   2
OSCEOLA        CLOUDY    15  10  83 W7        30.21F WCI   5
$$

WIZ003>005-009-010-017-018-120800-
NORTH CENTRAL WISCONSIN

CITY           SKY/WX    TMP DP  RH WIND       PRES   REMARKS
MANITOWISH WTR CLOUDY     8  -1  66 W7        30.01F WCI  -3
ARBOR VITAE    CLOUDY    11   1  63 W8G16     30.02F WCI   0
WOODRUFF       CLOUDY    11   1  63 W8G16     30.02F WCI   0
RHINELANDER    CLOUDY    10  -1  61 W13       30.02F WCI  -5
EAGLE RIVER    CLOUDY     9  -3  56 W10       30.00F WCI  -5
LAND O LAKES   CLOUDY    10   0  64 W8G18     30.00F WCI  -3
PHILLIPS       CLOUDY    10   0  65 W5        30.06F WCI   1
TOMAHAWK       CLOUDY    10   0  63 W9        30.06F WCI  -3
MEDFORD        CLOUDY    11   1  65 W9        30.07F WCI  -2
MERRILL        CLOUDY    12   0  58 W7        30.08F WCI   1
$$

WIZ029-030-035-036-043>047-120800-
CENTRAL WISCONSIN

CITY           SKY/WX    TMP DP  RH WIND       PRES   REMARKS
WAUSAU         CLOUDY    13   2  61 W12       30.08F WCI  -1
MOSINEE        CLOUDY    12   3  67 W10G16    30.10F WCI  -1
MARSHFIELD     CLOUDY    13   1  59 W12       30.10F WCI  -1
STEVENS POINT  CLOUDY    12   0  57 W6        30.12F WCI   3
WAUPACA        CLOUDY    17   1  51 W8        30.14F WCI   6
WAUTOMA        CLOUDY    15   0  51 W8        30.15F WCI   4
WISC RAPIDS    CLOUDY    14  -1  51 W8        30.14F WCI   3
CAMP DOUGLAS   CLOUDY    14   1  57 W8        30.15F WCI   2
$$

WIZ011>013-019>022-031-037>040-048>050-120800-
NORTHEAST WISCONSIN

CITY           SKY/WX    TMP DP  RH WIND       PRES   REMARKS
ANTIGO         CLOUDY    10  -1  62 W10G16    30.04F WCI  -4
SHAWANO        CLOUDY    17   0  48 W7        30.11F WCI   7
OCONTO         CLOUDY    15   0  50 W12       30.10F WCI   2
STURGEON BAY   CLOUDY    14   0  52 W12       30.10F WCI   0
GREEN BAY      CLOUDY    15   1  53 W10       30.12F WCI   2
MANITOWOC      CLOUDY    16   2  54 W13       30.13F WCI   2
APPLETON       CLOUDY    16   0  48 W12       30.10F WCI   3
CLINTONVILLE   CLOUDY    16   0  48 W9        30.11F WCI   4
OSHKOSH        CLOUDY    15   1  53 W7        30.13F WCI   5
$$

WIZ032>034-041-042-053>061-120800-
SOUTHWEST WISCONSIN

CITY           SKY/WX    TMP DP  RH WIND       PRES   REMARKS
LA CROSSE      LGT SNOW  14   6  70 W7        30.21F WCI   4
SPARTA         CLOUDY    14   4  64 W6        30.19F WCI   5
VIROQUA        CLOUDY    12   4  71 W9        30.15F WCI  -1
BOSCOBEL       CLOUDY    15   4  61 SW5       30.22F WCI   8
PRAIRIE DU CHI CLOUDY    15   3  60 CALM      30.23S
PLATTEVILLE    CLOUDY    14   6  70 W3        30.19F
$$

WIZ056-057-062-063-064-067-068-120800-
SOUTH CENTRAL WISCONSIN

CITY           SKY/WX    TMP DP  RH WIND       PRES   REMARKS
REEDSBURG      CLOUDY    14   1  57 W8        30.17F WCI   3
BARABOO/DELLS  CLOUDY    14   0  52 W8        30.16F WCI   3
LONE ROCK      CLOUDY    14   3  61 W7        30.21F WCI   4
MINERAL POINT  CLOUDY    16   5  62 W7        30.16F WCI   6
MADISON        CLOUDY    15   1  53 VRB5      30.17F WCI   8
MIDDLETON      CLOUDY    17   4  57 W6        30.17F WCI   9
WATERTOWN      CLOUDY    16   6  64 W5        30.16F WCI   9
MONROE         CLOUDY    16   7  67 W6        30.17S WCI   7
JANESVILLE     CLOUDY    19   5  53 W3        30.19F
$$

WIZ051-052-058>065-066-070>072-120800-
SOUTHEAST WISCONSIN

CITY           SKY/WX    TMP DP  RH WIND       PRES   REMARKS
MILWAUKEE      CLOUDY    18   2  49 W9        30.17F WCI   7
WAUKESHA       CLOUDY    16   3  57 W10       30.16F WCI   3
MILWAUKEE/TIMM CLOUDY    18   1  49 W10       30.17F WCI   6
RACINE         CLOUDY    18   5  57 W8        30.18F WCI   8
BURLINGTON     CLOUDY    15   5  64 SW5       30.17F WCI   8
KENOSHA        CLOUDY    18   8  65 W6        30.18F WCI  10
FOND DU LAC    CLOUDY    16   3  56 W8        30.14F WCI   5
SHEBOYGAN      CLOUDY    16   2  54 W12       30.12F WCI   3
WEST BEND      CLOUDY    16   1  53 CALM      30.14F
JUNEAU         CLOUDY    14   3  61 SW10      30.16F WCI   2
$$

LSZ147-162-120800-
LAKE SUPERIOR

STATION/POSITION TIME  TEMP    WIND        PRES    WAVE
                       AIR SEA DIR/SP/G            HT/PER
                 (UTC) (F)     (DEG/KT/KT) (MB)    (FT/S)
DEVILS ISLAND    0700   14     300/ 21/ 25 1020.6F
PORT WING        0600   15     300/ 14/ 22 1020.7F
SAXON HARBOR     0630   14                 1019.6F
$$

LMZ867-665-643>646-120800-
LAKE MICHIGAN

STATION/POSITION TIME  TEMP    WIND        PRES    WAVE
                       AIR SEA DIR/SP/G            HT/PER
                 (UTC) (F)     (DEG/KT/KT) (MB)    (FT/S)
CHAMBERS ISLAND  0600   16     240/  9/ 16 1018.6F
ALGOMA LAKESHORE 0511          260/  6/ 11   N/A
KEWAUNEE LAKESHO 0600   16     260/ 10/ 14 1019.4F
SHEBOYGAN LAKESH 0700   17     260/ 14/ 16 1021.7F
PORT WASHINGTON  0600   17     280/ 10/ 16 1022.7F
MILWAUKEE LAKESH 0610   18     260/ 12/ 15   N/A
KENOSHA   LAKESH 0700   19     260/  8/ 12 1022.0F
$$

TC  - TEMPERATURE IN CELSIUS
VSB - VISIBILITY IN STATUTE MILES
WCI - WIND CHILL INDEX
HX  - HEAT INDEX





USA.gov is the U.S. government's official web portal to all federal, state and local government web resources and services.